Kuchera_Ratio
3.6 0.1 0.8 4.2 4.6 1.8 4.6 1.8 7.7 3.0 0.0 0.0 0.0 0.0 0.0 0.0 0.0 0.0 0.0 0.0 0.0 0.0 0.0 0.0 0.0 0.0 0.0 0.0 0.0 0.0 0.0 0.0 0.0 0.0 0.0 0.0 0.0 0.0 0.0 0.0 0.0 0.0 0.0 0.0
6.0 0.0 0.0 5.5 1.5 1.1 0.3 0.0 0.9 0.0 2.0 0.0 0.0 0.0 0.0 0.0 0.0 0.0 0.0 0.0 0.0 0.0 0.0 0.0 0.0 0.0 0.0 0.0 0.0 0.0 0.0 0.0 0.0 0.0 0.0 0.0 0.0 0.0 0.0 0.0 0.0 0.0 0.0 0.0
13.0 4.1 1.7 9.7 2.3 0.2 0.0 0.0 0.0 3.6 0.0 0.0 0.0 0.0 0.0 0.0 0.0 0.0 0.0 0.0 0.0 0.0 0.0 0.0 0.0 0.0 0.0 0.0 0.0 0.0 0.0 0.0 0.0 0.0 0.0 0.0 0.0 0.0 0.0 0.0 0.0 0.0 0.0 0.0
13.0 6.2 14.9 4.6 0.0 0.0 0.0 0.0 0.0 0.0 0.0 0.0 0.0 0.0 0.0 0.0 0.0 0.0 0.0 0.0 0.0 0.0 0.0 0.0 0.0 0.0 0.0 0.0 0.0 0.0 0.0 0.0 0.0 0.0 0.0 0.0 0.0 0.0 0.0 0.0 0.0 0.0 0.0 0.0
13.0 12.8 6.4 5.8 0.0 0.0 2.1 2.5 0.0 0.0 0.0 0.0 0.0 0.0 0.0 0.0 0.0 0.0 0.0 0.0 0.0 0.0 0.0 0.0 0.0 0.0 0.0 0.0 0.0 0.0 0.0 0.0 0.0 0.0 0.0 0.0 0.0 0.0 0.0 0.0 0.0 0.0 0.0 0.0
8.0 13.0 14.8 6.3 0.0 0.0 0.0 8.2 0.0 0.0 0.0 0.0 0.0 1.2 0.0 0.0 0.0 0.0 0.0 0.0 0.0 0.0 0.0 0.0 0.0 0.0 0.0 0.0 0.0 0.0 0.0 0.0 0.0 0.0 0.0 0.0 0.0 0.0 0.0 0.0 0.0 0.0 0.0 0.0
10.9 13.6 7.9 0.0 0.0 0.0 11.2 6.5 0.0 0.0 0.0 0.0 0.0 0.0 0.0 0.0 0.0 0.0 0.0 0.0 0.0 0.0 0.0 0.0 0.0 0.0 0.0 0.0 0.0 0.0 0.0 0.0 0.0 0.0 0.0 0.0 0.0 0.0 0.0 0.0 0.3 1.1 1.6 2.1
7.8 13.0 14.6 0.0 0.0 4.6 0.0 0.0 0.0 0.0 0.0 0.0 0.0 0.0 0.0 0.0 0.0 0.0 0.0 0.0 0.0 0.0 0.0 0.0 0.0 0.0 0.0 0.0 0.0 0.0 0.0 0.0 0.0 0.0 0.0 0.0 0.0 0.0 0.7 1.3 2.0 2.7 3.5 5.1
6.9 7.7 0.0 0.0 0.0 0.0 0.0 0.0 0.0 0.0 0.0 0.0 0.0 0.0 0.0 0.0 0.0 0.0 0.0 0.0 0.0 0.0 0.0 0.0 0.0 0.0 0.0 0.0 0.0 0.0 0.0 0.0 0.0 0.0 0.0 0.0 0.0 0.3 1.8 3.0 3.3 3.9 5.1 6.6
0.0 0.0 0.0 0.0 0.0 0.0 0.0 0.0 0.0 0.0 0.0 0.0 0.0 0.0 0.0 0.0 0.0 0.0 0.0 0.0 0.0 0.0 0.0 0.0 0.0 0.0 0.0 0.0 0.0 0.0 0.0 0.0 0.0 0.0 0.0 0.0 0.7 1.8 3.2 4.3 4.7 5.7 6.4 7.1
3.2 0.0 0.0 0.0 0.0 0.0 0.0 0.0 0.0 0.0 0.0 0.0 0.0 0.0 0.0 0.0 0.0 0.0 0.0 0.0 0.0 0.0 0.0 0.0 0.0 0.0 0.0 0.0 0.0 0.0 0.0 0.0 0.0 0.0 0.0 1.2 2.3 3.0 3.8 2.7 3.7 6.0 6.2 5.6
7.1 1.2 0.8 0.0 0.0 0.0 0.0 0.0 0.0 0.0 0.0 0.0 0.0 0.0 0.0 0.0 0.0 0.0 0.0 0.0 0.0 0.0 0.0 0.0 0.0 0.0 0.0 0.0 0.0 0.0 0.0 0.0 0.0 0.0 0.4 2.2 3.8 4.1 0.0 0.0 0.0 0.0 0.0 2.8
1.1 0.0 0.0 0.0 0.0 0.0 0.0 0.0 0.0 0.0 0.0 0.0 0.0 0.0 0.0 0.0 0.0 0.0 0.0 0.0 0.0 0.0 0.0 0.0 0.0 0.0 0.0 0.0 0.0 0.0 0.0 0.0 0.0 0.2 1.5 3.3 4.8 5.6 5.7 4.3 0.0 0.0 0.0 0.0
0.0 0.0 0.0 0.0 0.7 0.0 0.0 0.0 0.0 0.0 0.0 0.0 0.0 0.0 0.0 0.0 0.0 0.3 1.2 1.1 0.0 0.0 0.0 0.0 0.0 1.2 0.0 0.0 0.0 0.0 0.0 0.0 0.0 0.7 1.8 2.9 4.7 6.2 6.7 7.7 7.9 6.8 0.8 0.2
3.7 2.7 1.4 0.0 0.0 0.0 0.0 0.0 0.0 0.0 0.0 0.0 0.0 0.0 0.0 1.2 2.0 2.3 1.6 1.6 1.1 1.2 1.7 1.1 2.5 4.0 2.1 1.9 1.6 1.7 1.9 1.8 1.6 1.8 2.5 3.2 4.5 6.2 7.1 7.6 7.6 7.3 7.7 4.6
1.7 3.7 2.6 2.2 1.2 0.0 0.0 0.0 0.0 0.3 0.1 0.0 0.6 1.3 1.0 1.5 2.6 3.1 3.9 4.3 5.7 6.1 4.5 4.1 4.4 3.4 1.9 1.2 0.7 2.3 1.8 0.2 0.3 3.8 4.2 4.8 5.4 6.9 7.8 8.0 7.9 7.8 7.7 7.7
6.1 5.8 4.1 4.6 2.2 0.4 0.0 0.0 0.0 0.0 0.4 1.8 2.5 2.2 2.5 4.0 5.0 6.4 6.4 5.9 5.4 3.6 3.7 4.7 4.7 3.0 2.0 1.4 3.0 3.3 2.4 3.0 0.4 3.5 5.1 5.7 6.3 7.2 7.3 8.0 8.1 7.9 7.3 6.3
2.7 2.4 1.9 2.7 3.1 2.4 0.5 1.7 2.5 3.9 5.6 6.7 3.4 4.6 6.1 7.4 7.8 8.2 8.4 6.5 4.3 6.1 7.4 8.1 4.9 4.4 3.1 3.7 3.6 3.1 4.3 5.0 5.3 5.8 5.8 6.6 6.8 6.5 7.2 7.7 7.8 8.0 7.3 7.0
3.2 4.5 4.2 4.3 4.3 3.4 4.1 5.4 6.0 6.2 7.1 6.2 5.8 6.9 7.6 8.7 9.2 8.8 9.1 8.9 9.6 11.8 11.3 10.0 5.3 5.4 5.7 6.0 3.2 4.1 6.0 6.5 6.5 6.1 6.2 4.7 5.5 6.3 7.7 7.8 7.7 7.6 7.4 7.5
3.9 4.2 4.4 5.3 5.9 5.6 7.3 6.6 6.8 7.3 5.1 5.7 5.4 7.1 8.4 9.2 8.4 9.5 10.4 10.9 10.7 11.5 10.8 10.4 9.6 10.4 10.3 9.4 4.1 8.8 6.7 7.7 7.9 7.3 6.9 6.7 7.3 7.3 7.4 6.6 7.3 7.7 7.6 7.4
5.0 5.3 5.7 7.4 10.0 9.0 8.8 7.0 6.7 8.7 7.6 7.2 8.4 8.5 9.2 8.5 8.1 9.1 11.2 12.2 11.4 10.6 9.8 9.1 12.3 12.2 11.0 8.4 9.7 12.2 12.4 12.1 9.3 8.9 9.0 8.4 8.1 7.4 7.3 7.8 7.8 7.8 7.8 7.8
6.6 7.5 7.4 7.3 8.2 8.3 9.0 10.0 9.3 9.6 10.2 10.5 10.4 10.9 11.5 11.5 11.4 11.4 10.5 11.9 11.3 5.8 12.4 12.6 12.8 10.4 9.4 5.7 12.9 13.3 13.3 13.3 13.3 12.9 11.5 9.7 9.8 10.1 9.3 8.5 7.6 7.3 7.4 7.3
7.3 7.2 7.2 8.0 11.5 11.9 11.9 12.1 11.4 11.0 10.9 10.5 10.5 10.7 10.7 11.0 12.1 12.7 12.3 11.4 11.9 11.1 12.3 12.8 9.7 5.5 4.5 12.7 13.5 13.8 13.8 13.8 14.1 12.6 12.1 11.9 11.9 11.7 11.8 11.1 9.9 8.6 8.3 7.6
6.9 7.2 7.5 7.4 8.3 10.7 12.5 11.4 10.6 9.9 9.9 10.3 9.7 10.0 10.9 11.3 11.2 10.7 11.0 9.2 7.5 9.3 12.0 12.3 10.3 5.5 5.0 13.6 14.1 14.4 14.5 14.5 14.6 14.4 12.0 9.9 12.2 12.4 12.5 12.4 12.5 11.4 10.7 9.4
7.2 6.5 7.3 9.5 10.5 10.9 11.4 10.6 10.9 9.8 9.9 9.9 9.4 9.0 9.4 10.7 12.1 11.2 12.0 12.4 9.7 11.0 13.2 10.5 7.4 8.0 14.2 14.4 14.7 14.8 15.0 15.2 15.3 15.0 15.1 15.2 14.1 13.7 14.0 13.9 13.0 12.9 12.7 12.2
10.0 10.0 8.8 5.9 6.9 7.1 7.8 9.3 11.4 9.5 10.1 10.4 9.7 9.2 9.5 10.3 11.5 12.2 12.5 12.7 13.1 12.4 13.5 13.8 14.3 14.2 14.8 15.1 15.2 15.4 15.6 15.6 15.7 16.0 15.6 16.2 16.1 16.0 16.0 15.0 13.6 13.4 13.3 13.1
10.9 10.9 10.6 10.9 10.1 9.8 9.8 10.1 11.5 11.1 10.2 10.7 10.7 9.9 10.2 11.2 11.9 12.5 11.9 12.9 13.3 13.7 14.1 14.5 14.9 15.0 15.5 15.8 15.9 16.2 16.2 16.4 15.3 16.0 16.7 17.0 17.2 17.3 17.2 16.8 16.6 16.3 15.4 13.9